This is the latest recevied weather packets stored in our database for station/object K3CHZ. If no packets are shown the sender has not sent any weather packets the latest 10 day(s).
| Time | Temp. | Humidity | Pressure | Rain* | Wind** | Luminosity | Snow |
|---|---|---|---|---|---|---|---|
| 1778163436 | 10.56° C | 85% | 1012.8 hPa | 0 mm | - | - | - |
| 1778163136 | 10.56° C | 83% | 1012.7 hPa | 0 mm | - | - | - |
| 1778162837 | 10.56° C | 79% | 1012.9 hPa | 0 mm | - | - | - |
| 1778162537 | 10.56° C | 83% | 1012.9 hPa | 0 mm | - | - | - |
| 1778162236 | 10.56° C | 84% | 1013.1 hPa | 0 mm | - | - | - |
| 1778161936 | 10.56° C | 89% | 1013 hPa | 0 mm | - | - | - |
| 1778161638 | 10.56° C | 88% | 1013 hPa | 0 mm | - | - | - |
| 1778161336 | 10.56° C | 88% | 1013 hPa | 0 mm | - | - | - |
| 1778161037 | 10.56° C | 88% | 1013.1 hPa | 0 mm | - | - | - |
| 1778160737 | 10.56° C | 90% | 1013.2 hPa | 0 mm | - | - | - |
| 1778160437 | 10.56° C | 90% | 1013.1 hPa | 0 mm | - | - | - |
| 1778160139 | 10.56° C | 91% | 1013.1 hPa | 0 mm | - | - | - |
| 1778159840 | 10° C | 91% | 1013.2 hPa | 0 mm | - | - | - |
| 1778159539 | 10° C | 92% | 1013.1 hPa | 0 mm | - | - | - |
| 1778159239 | 10° C | 90% | 1012.9 hPa | 0 mm | - | - | - |
| 1778158939 | 10° C | 90% | 1013.1 hPa | 0 mm | - | - | - |
| 1778158639 | 10° C | 90% | 1013 hPa | 0 mm | - | - | - |
| 1778158339 | 10° C | 91% | 1013 hPa | 0 mm | - | - | - |
| 1778158039 | 10° C | 90% | 1012.9 hPa | 0 mm | - | - | - |
| 1778157739 | 10° C | 91% | 1013 hPa | 0 mm | - | - | - |
| 1778157439 | 10° C | 92% | 1013 hPa | 0 mm | - | - | - |
| 1778157139 | 10° C | 93% | 1013 hPa | 0 mm | - | - | - |
| 1778156836 | 10° C | 93% | 1013 hPa | 0 mm | - | - | - |
| 1778156539 | 10° C | 93% | 1012.9 hPa | 0 mm | - | - | - |
| 1778156236 | 10° C | 93% | 1012.8 hPa | 0 mm | - | - | - |
* Rain latest hour (hover to see other rain measurements)
** Current wind speed in m/s (hover to see current wind gust speed)